Temp
80 82 80 73 63 61 58 64 73 69 69 73 75 76 70 70 67 59 71 76 77 77 79 81 82 83 83 82 82 83 83 83 83 83 83 83 83 83 83 83 83 83 82 83 83 83 83 83 84
81 83 74 66 57 52 56 70 69 72 75 77 78 75 71 67 74 69 69 77 78 78 79 80 81 82 82 82 83 83 83 83 83 83 83 83 83 83 83 83 84 83 82 82 83 83 83 84 83
84 84 68 62 57 56 57 74 71 76 79 79 75 78 74 67 72 71 74 78 78 76 78 80 82 82 82 83 83 83 83 83 83 83 83 83 83 83 83 84 84 84 83 83 84 84 83 84 84
80 72 67 59 57 63 69 73 76 74 79 81 78 70 76 81 75 76 78 78 76 75 77 81 83 83 83 83 83 83 83 83 83 83 83 83 83 83 84 84 84 84 84 84 84 83 84 84 84
76 67 60 58 60 67 73 79 80 74 76 77 76 68 68 77 78 77 77 78 75 76 77 81 83 83 83 83 83 83 83 83 83 83 83 83 84 83 84 84 84 84 84 84 84 83 84 83 83
68 67 56 54 61 70 75 81 80 75 77 75 73 69 68 75 75 76 78 76 78 76 77 79 83 83 83 83 83 83 83 83 83 83 83 83 83 83 84 84 84 84 84 84 84 84 83 83 83
66 62 57 57 59 66 75 83 75 74 75 75 77 64 66 70 76 77 77 77 76 76 77 76 79 82 83 84 83 83 83 83 83 83 83 83 84 83 84 84 84 84 84 84 84 84 83 83 83
69 62 60 59 60 61 75 80 82 78 75 83 79 64 62 71 78 77 77 74 74 74 75 75 75 76 76 78 84 83 83 83 83 83 83 83 84 84 84 83 83 84 84 84 84 84 84 82 82
77 60 56 61 62 65 76 74 83 84 77 80 81 75 76 78 78 73 71 71 73 74 74 74 74 74 74 75 79 82 84 84 83 83 83 81 75 77 79 81 83 84 84 84 84 84 84 82 82
69 60 64 72 71 71 77 78 79 77 73 71 73 76 78 78 74 70 69 69 71 71 72 73 73 73 73 77 73 74 77 74 75 75 76 74 73 73 78 80 83 84 84 84 84 84 84 81 74
73 66 74 77 77 79 76 78 80 73 66 70 68 71 74 73 72 70 70 71 71 72 72 71 72 72 72 74 72 71 72 72 74 74 74 73 73 72 73 73 75 74 80 77 79 79 75 74 74
70 78 79 81 80 78 76 79 76 74 75 77 76 76 75 72 71 71 70 71 70 72 71 71 72 72 71 72 71 71 71 71 73 73 73 71 71 71 71 72 73 73 73 73 74 75 73 73 72
75 79 82 82 80 80 81 78 76 76 78 79 79 77 74 73 72 73 73 72 71 71 71 69 71 71 71 71 70 71 70 73 72 73 72 70 71 71 72 73 73 72 72 72 71 72 73 73 74
78 79 79 82 81 82 79 77 78 76 79 77 77 75 75 74 74 74 73 71 71 71 70 71 71 71 71 70 71 71 70 71 71 72 73 73 72 72 72 72 72 73 73 73 73 72 72 72 71
79 73 76 75 77 78 80 71 73 77 77 75 75 75 75 76 76 74 74 73 73 72 72 72 72 72 70 70 71 71 71 71 70 71 73 74 74 73 73 72 72 74 73 74 73 72 71 76 76
72 68 61 72 76 78 75 61 72 77 75 72 74 75 75 75 76 77 77 76 74 74 71 72 77 72 70 70 71 71 71 71 71 70 71 74 74 74 73 73 73 73 73 73 71 73 71 71 73
64 57 62 68 75 76 73 65 73 77 76 72 73 74 75 74 76 77 78 77 75 74 72 71 73 71 71 71 70 71 71 70 69 70 70 72 74 76 74 73 73 74 72 71 71 71 71 70 71
56 60 66 63 72 73 68 68 73 75 76 73 73 74 74 75 76 78 79 79 76 75 73 73 74 72 71 71 70 70 71 69 69 70 71 73 72 76 74 73 74 75 74 72 69 71 72 72 71
65 63 62 69 75 70 67 67 71 74 75 73 71 72 73 75 78 79 79 80 77 76 73 73 73 70 71 70 68 68 69 70 69 70 73 74 73 75 74 73 75 74 74 71 72 72 71 71 71
64 61 62 68 75 71 67 67 71 72 73 76 73 73 74 75 76 78 77 77 76 75 74 73 73 71 72 73 70 70 70 70 71 72 72 73 75 75 75 74 74 74 73 72 72 71 70 71 72
63 57 62 64 70 70 67 62 67 73 73 76 77 77 77 75 75 76 77 75 77 74 73 73 73 71 73 73 69 69 70 71 70 71 71 73 75 76 75 75 73 73 71 71 70 71 71 69 71
55 70 69 68 62 56 65 50 60 66 70 73 75 75 76 77 78 76 77 76 76 76 76 75 73 72 73 70 71 69 68 69 71 71 73 73 75 75 76 75 73 72 71 71 70 73 71 70 70
64 73 67 69 59 54 58 54 59 62 65 67 73 76 76 78 78 77 78 79 79 79 77 76 73 72 73 72 73 72 68 69 71 71 72 71 72 74 76 75 73 72 73 71 72 72 71 71 70
75 65 61 55 53 49 52 55 57 61 68 68 73 77 78 79 79 79 80 80 79 79 78 76 72 71 72 72 72 72 70 69 69 70 70 71 72 72 74 75 73 73 72 72 72 72 72 71 71
63 53 46 46 46 47 49 52 58 69 72 74 72 77 79 80 79 78 77 78 78 77 77 76 72 70 71 72 72 73 72 70 69 70 70 70 70 70 71 72 72 73 73 73 72 72 72 72 71
61 58 49 42 41 47 52 52 63 72 76 76 77 80 81 80 81 79 77 79 77 78 77 76 73 71 71 72 72 73 73 73 73 71 71 71 71 71 71 73 73 74 74 74 72 71 72 71 71
60 55 57 48 40 45 50 58 69 72 73 72 73 76 78 80 81 80 79 78 77 77 77 76 73 73 72 72 72 72 72 73 72 71 72 72 70 73 71 73 74 74 74 73 73 72 71 72 71
68 67 55 48 43 39 48 52 54 65 70 70 71 73 75 79 80 80 80 78 78 78 78 77 75 74 73 73 72 72 72 73 73 72 71 71 72 71 72 72 72 73 74 74 73 72 72 71 71
62 56 53 52 48 45 43 52 63 65 68 70 71 75 74 77 79 79 80 81 78 78 77 76 75 74 73 73 73 73 72 73 73 74 73 73 71 71 71 73 71 70 73 73 72 72 72 71 71
65 63 57 52 49 44 47 53 71 67 71 72 74 74 73 75 79 79 79 79 75 76 77 75 75 75 74 74 73 72 72 73 73 73 73 72 72 71 72 72 72 72 72 72 71 71 73 71 71
MSLP
1009.90 1010.02 1010.03 1010.24 1011.11 1010.99 1010.76 1009.79 1008.88 1008.58 1008.76 1008.94 1009.02 1009.47 1010.44 1011.32 1012.00 1013.15 1012.78 1013.01 1013.07 1013.83 1014.30 1014.60 1014.92 1015.11 1015.35 1015.66 1015.63 1015.92 1016.13 1016.21 1016.32 1016.44 1016.45 1016.63 1016.93 1016.90 1017.02 1017.11 1017.32 1017.58 1017.65 1017.66 1017.80 1017.89 1017.99 1018.02 1018.19
1009.76 1009.92 1010.20 1010.68 1011.48 1011.68 1010.71 1009.46 1008.82 1008.53 1008.71 1008.90 1009.09 1009.58 1010.25 1011.26 1011.77 1012.60 1013.07 1013.23 1013.17 1013.75 1014.21 1014.64 1014.74 1015.07 1015.34 1015.51 1015.82 1016.12 1016.32 1016.34 1016.42 1016.55 1016.55 1016.76 1017.00 1017.02 1017.09 1017.13 1017.37 1017.54 1017.71 1017.93 1017.84 1017.92 1018.00 1018.03 1017.98
1009.67 1009.82 1010.58 1011.24 1012.21 1011.89 1010.75 1009.41 1008.67 1008.60 1008.71 1008.87 1009.28 1009.74 1010.50 1011.40 1012.01 1012.51 1012.78 1013.14 1013.47 1013.91 1014.31 1014.65 1014.87 1015.12 1015.41 1015.71 1015.93 1016.13 1016.29 1016.41 1016.47 1016.65 1016.82 1016.88 1017.17 1017.21 1017.15 1017.22 1017.40 1017.57 1017.89 1017.93 1017.92 1017.89 1017.94 1017.98 1017.93
1009.73 1010.14 1011.18 1011.70 1012.19 1011.18 1010.06 1009.22 1008.67 1008.60 1008.72 1008.95 1009.35 1010.32 1010.92 1010.99 1011.81 1012.25 1012.86 1013.32 1013.78 1014.17 1014.41 1014.62 1014.93 1015.17 1015.43 1015.74 1015.91 1016.18 1016.25 1016.34 1016.54 1016.72 1017.02 1017.14 1017.27 1017.22 1017.27 1017.34 1017.61 1017.89 1018.00 1018.00 1018.00 1018.01 1018.14 1018.05 1017.91
1010.23 1010.95 1011.64 1012.07 1011.81 1010.71 1009.50 1008.65 1008.79 1008.55 1008.69 1009.21 1009.73 1010.94 1011.64 1011.88 1011.92 1012.49 1013.11 1013.46 1013.75 1014.25 1014.53 1014.80 1015.01 1015.37 1015.56 1015.77 1015.89 1016.21 1016.30 1016.41 1016.61 1016.76 1017.16 1017.30 1017.22 1017.35 1017.41 1017.46 1017.59 1017.91 1018.05 1018.21 1018.28 1018.10 1017.98 1018.02 1017.87
1010.57 1011.54 1012.05 1012.32 1011.47 1010.40 1008.96 1008.11 1008.14 1008.40 1008.89 1009.55 1010.30 1011.22 1012.09 1012.25 1012.30 1012.77 1013.31 1013.71 1013.77 1014.22 1014.63 1014.86 1015.29 1015.45 1015.60 1015.87 1016.09 1016.28 1016.44 1016.49 1016.73 1016.87 1017.28 1017.34 1017.32 1017.51 1017.52 1017.64 1017.72 1017.99 1018.30 1018.44 1018.24 1018.07 1018.03 1018.10 1017.98
1011.10 1011.93 1012.45 1012.29 1011.65 1010.38 1008.78 1008.05 1008.03 1008.32 1008.85 1009.38 1009.92 1011.46 1012.35 1012.67 1012.68 1012.95 1013.48 1013.91 1014.22 1014.42 1014.75 1015.07 1015.30 1015.51 1015.71 1016.02 1016.25 1016.34 1016.38 1016.54 1016.81 1017.06 1017.37 1017.44 1017.44 1017.61 1017.56 1017.72 1017.82 1017.81 1017.99 1018.14 1018.20 1018.16 1018.12 1018.13 1018.10
1011.22 1012.21 1012.49 1012.12 1011.51 1010.29 1008.85 1008.16 1007.96 1008.34 1008.87 1009.26 1009.84 1011.01 1011.95 1012.33 1012.74 1013.28 1013.76 1014.19 1014.46 1014.74 1014.97 1015.23 1015.42 1015.64 1015.93 1016.33 1016.47 1016.46 1016.49 1016.56 1016.91 1017.31 1017.52 1017.59 1017.59 1017.69 1017.75 1017.75 1017.90 1017.90 1018.04 1018.14 1018.38 1018.20 1018.05 1018.02 1018.14
1010.93 1011.84 1012.07 1011.44 1010.93 1009.73 1008.71 1008.41 1008.17 1008.41 1008.91 1009.45 1009.84 1010.28 1010.48 1011.72 1012.81 1013.56 1014.18 1014.67 1014.83 1015.10 1015.24 1015.44 1015.71 1015.87 1016.24 1016.62 1016.63 1016.66 1016.64 1016.71 1017.08 1017.37 1017.66 1017.75 1017.91 1018.01 1017.90 1017.96 1018.07 1018.19 1018.23 1018.38 1018.34 1018.22 1018.32 1018.19 1018.22
1010.70 1011.07 1010.28 1009.57 1009.28 1008.75 1008.33 1008.20 1008.14 1008.64 1009.41 1010.36 1010.41 1010.77 1011.18 1011.94 1012.88 1013.55 1014.18 1014.57 1014.93 1015.16 1015.45 1015.64 1015.89 1016.21 1016.50 1016.69 1016.90 1016.97 1017.00 1017.06 1017.34 1017.70 1017.89 1018.10 1018.32 1018.35 1018.12 1018.15 1018.28 1018.13 1018.30 1018.41 1018.39 1018.36 1018.17 1018.33 1018.54
1009.67 1009.42 1008.67 1008.02 1008.08 1007.87 1007.81 1007.85 1008.07 1008.52 1009.36 1009.98 1010.23 1011.06 1011.63 1012.19 1012.98 1013.47 1013.96 1014.10 1014.19 1014.69 1015.44 1015.74 1016.12 1016.38 1016.55 1016.69 1017.00 1017.22 1017.40 1017.30 1017.43 1017.95 1018.10 1018.33 1018.64 1018.54 1018.48 1018.48 1018.49 1018.33 1018.17 1018.22 1018.54 1018.40 1018.45 1018.03 1018.05
1008.65 1007.93 1007.83 1007.06 1007.28 1007.73 1007.78 1007.81 1007.95 1008.31 1008.31 1008.90 1009.64 1010.17 1011.18 1012.05 1012.69 1013.24 1013.74 1014.17 1014.52 1014.87 1015.25 1015.64 1015.91 1016.33 1016.71 1016.75 1016.99 1017.25 1017.52 1017.44 1017.47 1017.95 1018.24 1018.47 1018.77 1018.71 1018.61 1018.63 1018.58 1018.63 1018.36 1018.33 1018.41 1018.70 1018.63 1018.38 1017.94
1007.98 1007.38 1006.95 1006.55 1006.95 1006.98 1007.26 1007.47 1007.72 1007.76 1008.27 1009.05 1009.87 1010.47 1010.95 1011.64 1012.38 1012.94 1013.09 1013.60 1014.15 1014.78 1015.12 1015.48 1015.93 1016.29 1016.68 1016.90 1017.00 1017.20 1017.49 1017.49 1017.52 1017.87 1018.24 1018.45 1018.67 1018.74 1018.63 1018.60 1018.51 1018.55 1018.57 1018.86 1018.91 1018.81 1018.44 1017.95 1017.60
1007.95 1007.32 1006.93 1006.82 1006.59 1006.57 1006.94 1007.25 1007.46 1007.88 1008.40 1009.15 1009.70 1010.26 1010.74 1011.20 1011.80 1012.58 1012.96 1013.23 1013.86 1014.43 1014.84 1015.31 1015.79 1016.07 1016.57 1016.84 1016.99 1017.13 1017.37 1017.48 1017.72 1017.80 1018.16 1018.28 1018.38 1018.49 1018.42 1018.23 1018.12 1018.25 1018.41 1018.40 1018.41 1018.25 1017.99 1017.36 1017.81
1008.04 1007.49 1007.16 1007.34 1006.77 1006.58 1006.66 1007.21 1007.25 1007.29 1008.17 1008.96 1009.58 1010.10 1010.60 1010.95 1011.46 1011.77 1012.07 1012.63 1013.13 1013.74 1014.27 1014.92 1015.55 1015.81 1016.52 1016.81 1016.96 1017.13 1017.31 1017.53 1017.86 1017.73 1018.03 1018.12 1018.15 1018.18 1018.09 1017.98 1017.99 1017.90 1017.95 1018.09 1018.18 1018.03 1018.00 1017.71 1017.60
1008.33 1008.05 1008.17 1007.28 1007.11 1006.63 1007.00 1007.10 1007.28 1007.56 1008.18 1008.99 1009.56 1010.10 1010.50 1010.74 1010.77 1011.25 1011.82 1012.22 1012.70 1013.37 1013.87 1014.63 1015.23 1015.74 1016.27 1016.62 1016.77 1017.01 1017.19 1017.48 1017.78 1017.72 1018.04 1018.05 1018.11 1017.97 1017.95 1018.03 1017.90 1017.87 1018.19 1018.20 1018.14 1018.05 1018.12 1018.08 1018.04
1009.63 1009.33 1008.77 1007.81 1007.05 1006.89 1007.09 1007.03 1007.05 1007.43 1008.10 1008.74 1009.24 1009.74 1010.05 1010.57 1010.86 1010.90 1011.25 1011.82 1012.31 1012.75 1013.57 1014.21 1014.81 1015.33 1015.78 1016.33 1016.55 1016.71 1017.05 1017.23 1017.65 1017.83 1017.94 1018.01 1017.93 1017.77 1017.97 1018.24 1018.09 1017.84 1018.19 1018.35 1018.28 1018.24 1018.22 1018.24 1018.01
1010.64 1010.22 1009.27 1008.64 1007.62 1007.61 1007.51 1007.06 1007.17 1007.37 1007.69 1008.08 1008.61 1009.22 1009.58 1009.85 1009.88 1010.27 1010.72 1011.40 1011.95 1012.49 1013.17 1013.83 1014.47 1015.04 1015.65 1016.18 1016.55 1016.77 1017.09 1017.31 1017.63 1017.77 1017.63 1017.73 1018.00 1017.72 1017.84 1018.00 1017.88 1017.59 1017.94 1018.23 1018.48 1018.45 1018.43 1018.40 1018.38
1010.78 1010.47 1009.87 1008.03 1007.44 1007.66 1007.22 1007.05 1006.65 1007.25 1007.64 1008.02 1008.14 1008.36 1008.90 1008.95 1009.19 1009.93 1010.40 1010.95 1011.70 1012.39 1013.05 1013.51 1014.10 1014.75 1015.38 1016.07 1016.62 1017.07 1017.07 1017.21 1017.45 1017.44 1017.36 1017.41 1017.70 1017.61 1017.73 1017.84 1017.67 1017.64 1017.90 1018.22 1018.33 1018.25 1018.36 1018.27 1017.78
1010.50 1010.36 1009.18 1008.03 1006.78 1007.08 1006.68 1006.96 1006.29 1006.55 1006.33 1006.41 1006.95 1007.59 1007.83 1008.42 1009.02 1009.60 1010.16 1010.74 1011.15 1011.74 1012.48 1013.19 1013.69 1014.39 1014.93 1015.49 1016.03 1016.51 1016.73 1016.84 1016.84 1016.94 1017.18 1017.28 1017.41 1017.40 1017.44 1017.55 1017.65 1017.43 1017.96 1018.17 1018.11 1018.09 1018.38 1018.29 1017.90
1009.80 1009.82 1008.66 1008.41 1007.16 1006.76 1006.91 1007.36 1006.72 1005.88 1005.68 1005.90 1005.98 1006.36 1007.07 1007.41 1007.98 1008.92 1009.50 1010.08 1010.78 1011.39 1011.92 1012.60 1013.20 1013.86 1014.51 1015.12 1015.81 1016.36 1016.70 1016.71 1016.80 1016.97 1017.09 1017.06 1017.09 1017.13 1017.22 1017.23 1017.43 1017.59 1017.85 1018.05 1018.12 1018.21 1018.20 1018.30 1018.06
1009.33 1007.73 1008.21 1008.08 1007.74 1007.51 1007.34 1007.58 1006.81 1005.71 1005.21 1005.14 1005.30 1005.82 1006.17 1006.64 1007.41 1008.13 1008.73 1009.34 1009.93 1010.55 1011.49 1012.17 1012.95 1013.57 1014.13 1014.68 1015.34 1015.84 1016.12 1016.39 1016.45 1016.56 1016.61 1016.73 1016.78 1016.90 1016.97 1017.09 1017.25 1017.35 1017.61 1017.87 1017.96 1018.12 1018.07 1018.10 1018.20
1008.12 1007.24 1008.07 1008.05 1008.23 1008.50 1008.07 1008.10 1006.25 1005.63 1005.01 1004.51 1004.41 1004.69 1005.20 1005.39 1006.33 1007.11 1007.46 1007.91 1008.99 1010.15 1010.88 1011.65 1012.59 1013.35 1013.82 1014.32 1014.72 1015.26 1015.77 1015.96 1016.02 1016.22 1016.30 1016.48 1016.60 1016.71 1016.75 1016.88 1017.02 1017.38 1017.44 1017.77 1017.81 1017.88 1018.03 1018.03 1018.21
1007.26 1007.85 1008.47 1009.16 1009.41 1009.54 1008.91 1008.49 1006.15 1005.39 1003.93 1003.65 1003.44 1003.76 1004.12 1004.72 1005.40 1005.89 1006.69 1008.01 1008.80 1009.63 1010.51 1011.29 1012.09 1012.75 1013.41 1013.95 1014.33 1014.72 1015.16 1015.65 1016.01 1016.17 1016.28 1016.38 1016.45 1016.59 1016.63 1016.72 1016.85 1016.99 1017.30 1017.52 1017.63 1017.75 1017.91 1017.95 1018.08
1007.61 1008.69 1009.53 1010.38 1010.95 1010.53 1009.14 1008.52 1005.87 1003.72 1002.96 1002.49 1002.91 1003.06 1003.32 1003.73 1004.62 1005.51 1006.42 1007.19 1008.03 1008.88 1009.81 1010.67 1011.53 1012.25 1012.86 1013.47 1013.91 1014.23 1014.60 1015.09 1015.52 1015.82 1016.01 1016.25 1016.46 1016.51 1016.51 1016.76 1016.87 1016.97 1016.89 1017.05 1017.24 1017.58 1017.73 1017.79 1017.86
1007.05 1008.10 1009.52 1010.79 1011.82 1011.00 1009.73 1007.98 1004.55 1002.63 1001.81 1001.60 1001.81 1001.87 1002.45 1003.29 1003.99 1004.76 1005.33 1006.02 1007.04 1008.17 1009.16 1010.01 1010.82 1011.58 1012.24 1012.83 1013.36 1013.84 1014.15 1014.54 1014.95 1015.30 1015.64 1015.87 1016.01 1016.12 1016.20 1016.29 1016.39 1016.42 1016.49 1016.64 1016.95 1017.41 1017.48 1017.52 1017.65
1006.81 1007.80 1008.37 1010.22 1011.61 1011.27 1009.50 1007.42 1004.58 1002.37 1001.55 1001.23 1001.44 1002.16 1002.34 1002.69 1003.40 1003.95 1004.82 1005.54 1006.46 1007.36 1007.92 1008.78 1010.08 1010.97 1011.67 1012.18 1012.86 1013.37 1013.80 1014.10 1014.44 1014.77 1015.09 1015.42 1015.56 1015.71 1015.96 1015.87 1016.13 1016.11 1016.22 1016.36 1016.76 1017.07 1017.23 1017.36 1017.48
1005.32 1006.59 1008.47 1010.19 1011.35 1011.45 1009.61 1007.73 1005.29 1003.46 1002.17 1001.51 1001.67 1001.95 1002.17 1002.37 1002.90 1003.57 1004.25 1004.97 1005.70 1006.49 1007.56 1008.61 1009.42 1010.00 1010.68 1011.57 1012.21 1012.77 1013.23 1013.63 1013.97 1014.29 1014.67 1014.89 1015.08 1015.34 1015.58 1015.70 1015.90 1016.07 1016.17 1016.26 1016.47 1016.66 1016.85 1017.13 1017.23
1005.56 1006.45 1008.08 1009.51 1010.42 1010.71 1009.81 1007.54 1004.56 1003.51 1002.85 1001.83 1001.64 1001.44 1001.79 1001.97 1002.35 1002.89 1003.45 1004.20 1005.32 1006.29 1007.18 1008.04 1008.97 1009.75 1010.49 1011.05 1011.67 1012.22 1012.68 1013.10 1013.49 1013.82 1014.12 1014.40 1014.63 1014.90 1015.17 1015.40 1015.64 1015.84 1015.85 1015.87 1016.08 1016.26 1016.49 1016.78 1016.88
1004.22 1005.28 1006.90 1009.06 1010.06 1010.03 1009.11 1006.36 1003.74 1003.15 1002.43 1001.66 1001.25 1001.16 1001.20 1001.55 1001.80 1002.39 1003.12 1004.15 1005.01 1005.82 1006.80 1007.58 1008.51 1009.19 1009.75 1010.35 1011.04 1011.56 1012.15 1012.65 1013.01 1013.21 1013.54 1013.95 1014.26 1014.62 1014.85 1015.04 1015.20 1015.25 1015.32 1015.46 1015.86 1016.09 1016.26 1016.45 1016.69
Wind_Speed
1 2 1 3 4 5 3 4 1 2 3 2 1 4 6 3 1 3 4 5 16 12 8 10 13 14 13 13 14 14 14 13 13 14 15 13 12 12 12 12 11 8 6 6 7 7 8 7 7
2 2 2 2 6 4 5 4 3 4 5 7 6 3 6 2 5 8 6 11 15 11 9 9 15 16 17 15 14 13 11 13 13 13 13 13 12 10 12 11 11 9 8 8 9 8 7 9 9
4 1 3 4 3 0 3 3 7 6 9 1 4 4 3 2 7 11 8 15 13 9 7 10 14 15 15 15 15 13 13 12 13 13 12 13 11 10 12 12 12 11 11 10 8 8 9 9 7
3 4 4 5 1 4 3 5 4 7 3 5 5 6 4 3 10 7 16 15 13 9 7 12 15 16 16 16 15 14 13 13 12 12 11 12 11 10 13 13 14 13 12 11 9 7 6 3 1
3 3 4 4 2 5 6 8 5 5 4 6 2 3 3 3 9 16 14 14 14 9 7 10 15 16 15 15 14 13 12 12 12 11 12 11 11 11 12 12 13 13 12 9 8 5 3 3 3
4 3 5 1 2 3 6 7 7 2 5 8 6 4 2 8 15 14 12 11 10 11 7 7 14 14 14 15 13 12 11 11 10 11 11 11 10 10 12 12 12 12 10 7 6 4 2 4 3
4 3 1 2 5 5 4 6 2 5 8 2 10 5 1 4 11 12 12 9 7 8 7 6 7 11 13 13 13 11 12 11 10 10 11 11 11 11 11 10 10 10 10 9 7 5 3 3 6
4 4 1 3 2 6 5 7 10 6 2 10 7 6 6 7 11 10 10 8 8 6 6 6 6 6 5 5 11 10 10 11 10 10 10 10 10 10 10 8 8 8 7 7 5 6 5 5 5
4 3 3 5 6 6 3 1 3 2 10 3 4 6 7 18 14 11 8 5 7 5 5 4 5 5 6 4 5 8 9 10 9 9 10 7 2 3 5 5 5 5 5 4 5 6 5 7 6
4 2 7 7 5 5 5 4 5 4 5 4 8 12 15 17 14 14 12 11 9 9 6 5 5 5 5 3 3 3 3 2 3 4 3 2 1 2 2 3 4 6 6 6 7 6 5 7 4
6 6 5 5 8 3 2 3 6 7 2 6 16 16 16 17 14 14 13 15 16 12 5 5 6 5 6 5 3 2 1 2 3 3 4 2 1 1 2 1 2 2 7 3 2 2 3 6 3
4 10 6 5 7 4 3 2 4 7 5 14 21 21 18 16 16 14 13 11 9 10 7 6 6 6 5 3 3 3 2 2 2 3 3 2 1 2 3 2 3 3 4 5 3 3 2 4 6
4 4 5 3 6 10 5 6 6 7 8 18 18 18 18 16 14 12 14 12 10 10 8 7 6 6 5 5 3 4 3 3 2 3 4 2 2 2 1 2 3 4 3 1 2 2 2 4 4
5 4 4 2 5 6 6 5 5 4 16 17 19 18 16 16 16 11 11 11 10 9 9 8 8 6 7 5 5 4 3 3 2 2 4 4 3 2 3 4 4 3 3 3 3 4 5 6 1
5 3 4 3 2 4 3 4 6 11 18 19 18 16 14 15 12 15 15 14 13 11 11 11 9 8 8 6 6 4 4 4 3 2 2 3 3 2 3 2 2 4 4 4 0 3 3 5 3
4 4 3 4 4 3 4 9 3 15 18 16 16 14 14 15 15 11 12 14 11 9 12 10 10 10 8 7 6 4 4 4 3 3 1 3 2 2 1 1 2 1 2 1 2 2 1 3 4
7 2 4 8 8 4 5 7 4 13 15 14 15 14 14 12 13 11 12 14 14 11 9 10 9 10 10 7 5 5 5 4 3 3 3 3 3 1 3 2 2 2 3 2 2 1 2 2 4
1 4 6 7 4 3 3 12 3 10 11 15 14 14 14 15 18 14 13 12 13 12 10 9 8 9 9 5 4 2 3 2 3 4 4 3 4 4 3 2 2 1 3 2 1 2 0 2 3
4 3 7 18 12 7 11 8 13 8 9 11 15 15 15 17 16 13 12 12 11 11 11 11 11 10 8 4 4 2 3 3 3 4 6 5 3 4 3 2 1 3 2 2 2 1 3 2 2
5 5 14 16 13 11 8 14 11 5 12 18 17 16 18 14 12 13 12 12 14 13 13 12 12 12 10 7 3 3 3 3 2 3 4 5 5 6 4 4 3 2 3 1 1 2 1 1 3
8 6 9 9 6 2 2 6 5 6 5 8 13 17 15 18 17 16 16 16 14 14 14 13 13 13 11 9 5 3 3 2 2 2 3 4 6 5 4 5 4 2 3 3 1 2 2 0 2
7 8 10 8 2 3 3 7 6 7 12 11 13 14 15 17 16 15 17 17 17 16 13 12 12 13 11 10 8 6 5 4 3 4 4 4 6 6 5 5 5 4 3 3 3 2 2 2 1
14 10 6 7 2 2 2 3 9 3 8 9 13 16 17 19 18 19 21 21 18 15 15 14 12 12 12 12 10 8 5 4 3 3 5 4 5 5 5 6 6 5 4 4 4 3 3 2 2
12 2 5 4 3 4 2 5 10 4 7 3 8 15 18 17 17 19 16 14 15 14 13 13 14 13 11 12 10 12 10 7 4 4 4 3 3 4 5 5 5 5 4 5 4 4 3 3 2
5 6 3 5 6 8 3 2 12 10 11 11 10 15 17 18 15 14 16 16 17 18 16 14 14 14 13 13 12 12 11 10 9 6 4 4 3 3 5 5 5 5 6 6 5 5 5 4 2
7 9 8 6 4 5 3 7 10 8 10 8 12 18 16 16 14 15 17 19 18 19 17 16 16 14 14 14 14 11 10 8 7 7 5 4 5 5 5 6 6 7 6 5 5 3 4 4 4
4 3 5 8 2 3 4 10 14 8 6 4 7 9 13 15 15 17 14 17 17 18 21 19 16 14 14 15 12 12 10 10 9 7 6 5 5 5 6 6 6 6 6 7 6 4 5 5 4
9 8 3 4 2 4 6 6 8 9 9 2 4 10 11 12 14 14 14 16 16 16 16 16 15 17 15 14 12 10 11 11 9 8 8 7 6 6 6 6 6 6 6 7 7 5 5 5 4
2 1 6 6 5 6 1 8 8 7 7 5 6 9 10 13 15 14 16 14 13 13 15 15 14 14 13 13 12 11 11 11 10 10 9 8 6 6 7 7 7 7 7 7 6 6 5 6 5
5 9 7 6 6 2 5 10 6 7 9 5 5 5 7 10 14 14 13 12 12 15 15 16 14 14 14 13 12 12 10 10 11 11 9 7 8 6 7 6 6 6 6 6 7 6 6 6 6
Wind_Direction
202 226 226 45 52 61 325 305 86 99 63 324 280 119 121 46 144 212 128 123 128 134 151 158 156 153 155 147 136 133 132 125 124 121 118 120 121 135 135 136 140 145 142 147 124 117 114 113 102
223 178 44 95 74 43 303 260 118 160 141 139 86 62 51 91 101 120 115 142 130 130 135 153 147 148 162 149 138 132 132 129 126 124 126 128 130 136 131 124 127 124 121 126 130 119 118 111 108
271 47 64 74 73 357 281 1 138 140 146 146 99 55 80 92 100 146 141 142 131 131 131 153 151 152 148 143 142 140 137 135 129 130 128 127 136 137 128 122 119 121 123 123 129 123 125 118 127
346 18 36 81 315 248 255 346 209 146 101 55 101 72 69 224 149 145 144 139 133 140 144 153 152 149 153 149 146 145 143 137 138 134 134 135 135 144 129 125 119 126 128 125 122 116 105 110 40
46 61 66 52 279 275 288 257 180 160 109 94 52 83 83 42 115 137 144 143 142 146 153 155 156 150 151 152 146 146 145 143 143 142 140 142 147 147 129 127 128 126 130 129 124 130 141 93 39
18 64 44 93 260 282 278 322 122 94 99 124 92 79 175 130 132 146 143 144 149 148 146 157 154 152 158 152 148 146 148 146 149 148 148 140 148 145 134 130 135 128 125 133 153 172 171 113 112
81 58 9 22 338 315 288 353 132 129 146 141 133 109 56 166 149 142 141 139 138 146 146 147 155 162 159 153 148 146 150 148 156 150 148 150 157 151 141 139 146 148 151 165 184 191 210 178 162
101 84 350 242 233 275 273 324 115 122 203 116 135 170 185 180 151 129 133 136 142 142 155 157 143 145 133 153 155 149 152 149 160 152 149 165 164 160 147 152 169 168 171 187 205 220 211 206 181
129 66 273 245 175 241 244 265 69 39 134 56 194 150 161 144 137 121 125 131 146 150 163 137 137 138 137 132 163 157 153 154 160 156 159 168 172 132 148 171 202 198 204 221 244 258 264 238 221
134 194 223 196 205 207 184 197 157 132 117 54 89 99 124 145 145 145 161 169 169 174 176 158 134 119 126 117 74 122 107 96 116 128 124 130 178 160 168 200 222 249 249 249 261 282 297 284 320
187 222 220 231 219 204 209 221 164 135 233 191 153 147 151 154 163 163 174 176 179 176 158 141 123 152 152 146 143 141 125 138 109 126 127 175 129 343 356 275 280 283 273 252 243 305 33 321 310
218 239 209 264 202 161 235 152 206 182 224 154 159 161 160 166 175 172 177 180 168 177 162 164 155 155 170 142 155 153 163 162 132 128 138 167 186 227 253 229 241 252 260 275 283 42 60 337 319
115 301 265 229 190 208 178 222 219 207 150 152 159 163 173 176 174 179 181 185 174 177 183 187 162 160 161 165 160 158 187 183 169 124 147 148 200 253 285 249 236 233 261 300 295 122 211 270 266
295 315 6 242 182 181 177 195 181 126 147 156 165 178 181 185 183 173 182 189 188 178 194 181 176 164 151 174 165 178 188 176 176 151 173 188 217 252 272 263 236 217 228 239 209 186 207 243 24
263 291 345 257 299 201 152 297 216 159 160 167 178 183 188 195 190 192 181 189 188 185 181 183 170 166 163 173 185 180 188 165 192 181 181 210 214 278 266 280 219 222 225 230 309 217 211 256 299
341 46 33 264 205 223 113 269 224 162 162 181 181 188 192 200 201 200 181 189 192 179 179 169 180 171 171 176 182 184 177 175 183 198 160 279 286 250 208 312 214 139 25 58 169 139 213 253 271
3 301 290 319 217 167 173 263 208 176 175 184 190 194 196 194 206 206 189 184 183 188 172 169 171 167 176 170 171 183 184 176 184 199 201 237 269 285 175 171 257 156 116 97 3 296 155 278 320
295 338 314 269 327 294 209 266 150 186 192 190 190 191 196 196 205 199 195 185 177 180 179 175 170 159 164 147 151 119 146 158 200 214 227 230 219 253 207 229 196 108 104 68 152 216 159 193 236
314 286 276 281 266 194 221 238 263 199 207 197 200 195 196 204 201 193 192 186 176 172 170 173 165 158 152 159 149 144 192 183 201 203 219 229 236 228 211 214 272 143 106 109 206 120 49 308 294
250 280 276 280 271 176 204 234 246 191 213 200 191 199 200 200 192 190 185 180 184 180 176 172 173 163 172 175 145 155 163 192 175 195 210 217 217 209 211 198 214 143 118 147 80 73 96 292 360
265 221 263 238 330 243 129 305 261 260 241 215 206 197 197 191 192 189 188 186 184 185 181 179 177 172 176 178 129 93 95 63 138 204 200 213 209 217 202 199 173 176 138 181 151 186 146 125 304
276 218 238 268 333 264 117 275 265 227 234 208 203 189 195 201 196 190 191 189 189 193 184 178 178 179 181 170 166 171 176 160 205 182 200 184 196 208 196 182 177 185 152 174 187 180 152 129 5
240 275 244 265 82 351 313 44 265 303 270 238 209 197 194 205 190 188 198 194 192 184 186 182 175 180 183 184 180 180 171 180 173 194 197 175 184 186 198 193 184 193 188 193 208 211 179 168 152
244 193 44 54 81 346 268 136 285 224 221 228 218 202 194 202 199 200 197 186 187 187 184 179 177 182 182 187 185 184 184 176 171 190 199 191 193 193 201 210 196 208 208 210 210 230 219 193 176
100 60 340 354 1 233 247 28 235 254 248 223 192 206 198 201 197 191 186 187 185 186 184 181 178 185 182 188 194 193 188 186 187 192 192 189 186 218 227 199 204 212 215 214 209 212 226 210 191
197 157 157 201 208 259 51 247 263 231 258 223 189 199 199 195 195 193 190 189 186 184 182 184 185 184 185 187 196 198 193 193 196 189 194 205 196 206 214 207 206 221 221 219 207 207 217 207 218
197 172 196 106 18 36 249 292 304 317 307 179 185 167 197 202 194 197 186 190 183 185 189 184 182 189 187 192 191 197 197 197 196 194 190 203 213 222 216 224 223 223 218 213 206 210 214 207 217
167 160 90 7 181 254 289 274 242 313 291 261 188 184 205 204 199 194 194 188 189 189 185 183 185 189 187 186 190 196 200 200 198 191 201 201 216 217 217 220 225 229 221 215 202 215 226 206 225
98 212 60 119 140 167 244 273 220 258 330 316 249 236 201 200 196 190 196 193 182 179 180 182 185 186 184 187 188 192 198 201 196 202 206 206 208 215 219 229 222 219 223 214 203 213 224 222 233
186 193 140 132 245 215 155 272 266 292 249 230 217 233 214 196 197 193 187 173 167 175 178 181 184 189 190 188 185 194 195 197 201 203 200 197 210 211 220 229 227 219 215 205 204 213 230 221 239